GW5740 Weather Reports


time (UTC)temp
F
wind
direction
speed
knots
gust
knots
rain 1hr
in
rain 24hr
in
rain mn
in
humidity
%
barometer
mb
20260503050308 37 287 0.0 0.9 0.00 0.00 0.00 78 1011.1
20260503045808 37 282 0.0 0.0 0.00 0.00 0.00 77 1011.0
20260503045308 38 0 0.0 0.0 0.00 0.00 0.00 77 1011.1
20260503044809 38 35 0.0 0.9 0.00 0.00 0.00 73 1011.1
20260503044308 37 0 0.0 0.0 0.00 0.00 0.00 74 1011.1
20260503043809 37 333 0.0 0.0 0.00 0.00 0.00 74 1011.1
20260503043309 37 0 0.0 0.0 0.00 0.00 0.00 71 1011.2
20260503042808 37 0 0.0 0.0 0.00 0.00 0.00 76 1011.3
20260503042308 38 110 0.0 0.0 0.00 0.00 0.00 75 1011.3
20260503041808 37 7 0.9 1.7 0.00 0.00 0.00 72 1011.3
20260503041308 37 0 0.0 0.0 0.00 0.00 0.00 71 1011.3
20260503040808 37 0 0.0 0.0 0.00 0.00 0.00 71 1011.3
20260503040308 37 0 0.0 0.0 0.00 0.00 0.00 69 1011.4
20260503035808 37 0 0.0 0.0 0.00 0.00 0.16 70 1011.4
20260503035308 37 2 0.9 1.7 0.00 0.00 0.16 72 1011.4
20260503034808 37 28 1.7 1.7 0.00 0.00 0.16 73 1011.5
20260503034308 37 29 1.7 1.7 0.00 0.00 0.16 68 1011.5
20260503033809 36 32 1.7 1.7 0.00 0.00 0.16 70 1011.5
20260503033308 36 29 0.9 1.7 0.00 0.00 0.16 72 1011.6
20260503032808 36 116 0.0 0.9 0.00 0.00 0.16 71 1011.5
20260503032308 36 31 0.9 1.7 0.00 0.00 0.16 71 1011.6
20260503031808 35 38 0.0 0.9 0.00 0.00 0.16 71 1011.6
20260503031308 35 34 1.7 1.7 0.00 0.00 0.16 73 1011.6
20260503030808 35 27 0.9 1.7 0.00 0.00 0.16 75 1011.6
20260503030308 35 17 1.7 1.7 0.00 0.00 0.16 74 1011.7
20260503025808 35 21 0.0 1.7 0.00 0.00 0.16 74 1011.6
20260503025308 35 0 0.0 0.0 0.00 0.00 0.16 73 1011.7
20260503024808 35 0 0.0 0.0 0.00 0.00 0.16 69 1011.6
20260503024308 35 0 0.0 0.0 0.00 0.00 0.16 67 1011.6
20260503023809 35 0 0.0 0.0 0.00 0.00 0.16 70 1011.6
20260503023308 35 23 0.0 0.9 0.00 0.00 0.16 72 1011.6
20260503022808 36 0 0.0 0.0 0.00 0.00 0.16 70 1011.6
20260503022308 37 350 0.0 0.9 0.00 0.00 0.16 69 1011.7
20260503021809 37 0 0.0 0.0 0.00 0.00 0.16 65 1011.8
20260503021308 37 13 1.7 1.7 0.00 0.00 0.16 62 1011.8
20260503020808 37 20 2.6 2.6 0.00 0.00 0.16 64 1011.8
20260503020308 37 35 1.7 2.6 0.00 0.00 0.16 64 1011.8
20260503015809 38 28 1.7 1.7 0.00 0.00 0.16 64 1011.9
20260503015309 38 17 1.7 1.7 0.00 0.00 0.16 63 1011.9
20260503014810 38 23 0.9 1.7 0.00 0.00 0.16 64 1011.9
20260503014308 38 39 0.9 1.7 0.00 0.00 0.16 66 1011.9
20260503013816 38 56 0.0 0.9 0.00 0.00 0.16 65 1011.9
20260503013308 38 14 0.9 1.7 0.00 0.00 0.16 62 1011.9
20260503012809 39 18 1.7 1.7 0.00 0.00 0.16 64 1011.9
20260503012308 39 17 0.0 0.9 0.00 0.00 0.16 63 1011.9
20260503011808 40 0 0.0 0.0 0.00 0.00 0.16 59 1011.9
20260503011309 40 352 0.0 0.9 0.00 0.00 0.16 58 1011.9
20260503010808 40 0 0.0 0.0 0.00 0.00 0.16 54 1011.8
20260503010308 41 24 1.7 1.7 0.00 0.00 0.16 56 1011.8
20260503005809 41 15 0.0 0.9 0.00 0.00 0.16 55 1011.8
20260503005308 42 68 0.0 0.0 0.00 0.00 0.16 59 1011.7
20260503004808 42 0 0.0 0.0 0.00 0.00 0.16 51 1011.7
20260503004308 42 20 0.0 0.9 0.00 0.00 0.16 49 1011.6
20260503003808 42 331 0.0 1.7 0.00 0.00 0.16 50 1011.6
20260503003308 43 319 0.9 1.7 0.00 0.00 0.16 49 1011.6
20260503002808 43 9 0.0 0.0 0.00 0.00 0.16 49 1011.5
20260503002308 44 0 0.0 0.0 0.00 0.00 0.16 48 1011.5
20260503001808 44 351 0.0 0.9 0.00 0.00 0.16 47 1011.5
20260503001309 44 0 0.0 0.0 0.00 0.00 0.16 48 1011.5
20260503000808 45 0 0.0 0.0 0.00 0.00 0.16 47 1011.4
20260503000308 45 308 0.0 0.9 0.00 0.00 0.16 46 1011.4
20260502235808 46 153 0.9 1.7 0.00 0.00 0.16 43 1011.3
20260502235308 46 156 0.9 1.7 0.00 0.00 0.16 45 1011.3
20260502234808 46 161 1.7 1.7 0.00 0.00 0.16 43 1011.3
20260502234308 46 186 2.6 3.5 0.00 0.00 0.16 43 1011.3
20260502233810 47 146 1.7 2.6 0.00 0.00 0.16 43 1011.3
20260502233308 47 166 0.9 1.7 0.00 0.00 0.16 44 1011.2
20260502232808 47 258 0.0 0.9 0.00 0.00 0.16 42 1011.1
20260502232308 47 157 1.7 2.6 0.00 0.00 0.16 44 1011.1
20260502231808 48 122 0.9 1.7 0.00 0.00 0.16 43 1011.0
20260502231309 48 48 0.0 1.7 0.00 0.00 0.16 43 1011.0
20260502230810 48 187 2.6 5.2 0.00 0.00 0.16 42 1011.0
20260502230308 49 168 1.7 1.7 0.00 0.00 0.16 43 1010.9
20260502225809 49 224 1.7 3.5 0.00 0.00 0.16 43 1010.8
20260502225308 49 167 1.7 3.5 0.00 0.00 0.16 42 1010.8
20260502224808 49 209 2.6 5.2 0.00 0.00 0.16 43 1010.7
20260502224309 50 167 2.6 4.3 0.00 0.00 0.16 42 1010.7
20260502223809 50 190 1.7 4.3 0.00 0.00 0.16 41 1010.6
20260502223308 50 152 2.6 5.2 0.00 0.00 0.16 42 1010.6
20260502222810 50 172 2.6 3.5 0.00 0.00 0.16 41 1010.5
20260502222308 51 189 2.6 4.3 0.00 0.00 0.16 42 1010.5
20260502221809 51 188 2.6 5.2 0.00 0.00 0.16 41 1010.5
20260502221309 51 149 1.7 6.1 0.00 0.00 0.16 42 1010.5
20260502220809 51 216 0.9 2.6 0.00 0.00 0.16 41 1010.4
20260502220308 51 217 4.3 6.1 0.00 0.00 0.16 41 1010.3
20260502215808 51 216 3.5 6.1 0.00 0.00 0.16 41 1010.3
20260502215308 52 185 4.3 8.7 0.00 0.00 0.16 42 1010.3
20260502214809 52 179 3.5 4.3 0.00 0.00 0.16 41 1010.2
20260502214309 52 181 4.3 6.1 0.00 0.00 0.16 41 1010.0
20260502213809 52 193 4.3 8.7 0.00 0.00 0.16 40 1010.1
20260502213308 52 219 3.5 6.1 0.00 0.00 0.16 42 1010.1
20260502212808 53 191 3.5 6.1 0.00 0.00 0.16 40 1010.0
20260502212309 53 190 3.5 4.3 0.00 0.00 0.16 42 1010.0
20260502211808 53 208 3.5 6.1 0.00 0.00 0.16 41 1010.0
20260502211309 53 182 3.5 7.0 0.00 0.00 0.16 41 1009.9
20260502210808 53 178 4.3 7.0 0.00 0.00 0.16 41 1009.9
20260502210308 52 195 3.5 4.3 0.00 0.00 0.16 42 1010.0
20260502205809 51 173 4.3 6.1 0.00 0.00 0.16 42 1010.0
20260502205309 51 179 5.2 7.8 0.00 0.00 0.16 43 1010.0
20260502204809 51 187 4.3 6.1 0.00 0.00 0.16 44 1010.0
20260502204308 52 178 3.5 6.1 0.00 0.00 0.16 44 1010.0
20260502203809 53 178 2.6 6.1 0.00 0.00 0.16 42 1010.0
20260502203308 53 177 3.5 5.2 0.00 0.00 0.16 40 1010.0
20260502202809 54 201 2.6 5.2 0.00 0.00 0.16 42 1010.0
20260502202308 53 167 4.3 6.1 0.00 0.00 0.16 41 1010.0
20260502201809 53 192 3.5 4.3 0.00 0.00 0.16 40 1010.0
20260502201308 54 192 5.2 7.0 0.00 0.00 0.16 39 1010.0
20260502200808 53 258 3.5 5.2 0.00 0.00 0.16 40 1010.1
20260502200309 54 185 5.2 7.0 0.00 0.00 0.16 41 1010.1
20260502195810 54 176 2.6 4.3 0.00 0.00 0.16 41 1010.1
20260502195308 54 217 5.2 8.7 0.00 0.00 0.16 42 1010.1
20260502194808 53 186 3.5 5.2 0.00 0.00 0.16 42 1010.1
20260502194308 52 178 2.6 4.3 0.00 0.00 0.16 46 1010.1
20260502193808 51 191 3.5 7.0 0.00 0.00 0.16 48 1010.2
20260502193309 52 180 3.5 6.1 0.00 0.00 0.16 48 1010.3
20260502192808 52 185 3.5 6.1 0.00 0.00 0.16 49 1010.3
20260502192308 51 196 2.6 4.3 0.00 0.00 0.16 50 1010.3
20260502191809 51 189 4.3 5.2 0.00 0.00 0.16 50 1010.3
20260502191309 51 194 3.5 4.3 0.00 0.00 0.16 51 1010.4
20260502190809 51 170 3.5 4.3 0.00 0.00 0.16 51 1010.4
20260502190308 51 175 5.2 7.0 0.00 0.00 0.16 50 1010.4
20260502185808 51 211 1.7 4.3 0.00 0.00 0.16 54 1010.4
20260502185308 51 148 0.9 3.5 0.00 0.00 0.16 52 1010.4
20260502184810 51 179 2.6 3.5 0.00 0.00 0.16 55 1010.5
20260502184308 52 7 1.7 3.5 0.00 0.00 0.16 55 1010.6
20260502183808 51 254 3.5 4.3 0.00 0.00 0.16 56 1010.6
20260502183309 50 168 1.7 3.5 0.00 0.00 0.16 62 1010.6
20260502182808 50 196 1.7 2.6 0.00 0.00 0.16 61 1010.7
20260502182310 50 209 0.9 1.7 0.00 0.00 0.16 61 1010.7
20260502181808 50 232 1.7 1.7 0.00 0.00 0.16 65 1010.8
20260502181308 50 220 0.0 1.7 0.00 0.00 0.16 63 1010.9
20260502180809 50 27 0.0 1.7 0.00 0.00 0.16 70 1011.0
20260502180308 49 113 0.9 1.7 0.00 0.00 0.16 73 1011.0
20260502170308 47 149 0.0 0.9 0.00 0.00 0.16 80 1011.3
20260502164308 45 22 0.9 0.9 0.00 0.00 0.15 85 1011.4
20260502163808 44 0 0.0 0.0 0.00 0.00 0.15 84 1011.4
20260502163309 44 128 0.0 0.0 0.00 0.00 0.15 86 1011.5
20260502162810 44 144 0.9 0.9 0.00 0.00 0.15 88 1011.5
20260502162308 43 2 0.0 0.0 0.01 0.00 0.15 88 1011.5
20260502161809 43 0 0.0 0.0 0.01 0.00 0.15 88 1011.5
20260502161308 43 39 0.0 0.9 0.01 0.00 0.15 88 1011.6
20260502160808 43 18 1.7 1.7 0.01 0.00 0.15 89 1011.5
20260502160308 43 0 0.0 0.0 0.01 0.00 0.15 89 1011.5
20260502152309 43 123 0.0 0.0 0.01 0.00 0.14 88 1011.7
20260502151808 43 325 1.7 2.6 0.01 0.00 0.14 88 1011.7
20260502151309 43 153 0.0 0.0 0.01 0.00 0.14 89 1011.6
20260502150808 44 196 0.9 1.7 0.00 0.00 0.14 88 1011.6
20260502150309 44 224 1.7 2.6 0.00 0.00 0.14 89 1011.6
20260502130308 44 185 1.7 2.6 0.00 0.00 0.13 89 1011.5
20260502123809 44 164 1.7 1.7 0.00 0.00 0.13 89 1011.6
20260502123308 44 277 0.0 0.0 0.00 0.00 0.13 89 1011.5
20260502122808 44 195 1.7 2.6 0.00 0.00 0.13 89 1011.4
20260502122308 44 166 1.7 1.7 0.00 0.00 0.13 89 1011.4
20260502121809 44 199 2.6 3.5 0.00 0.00 0.13 89 1011.4
20260502121308 44 181 2.6 2.6 0.00 0.00 0.13 90 1011.4
20260502120808 44 180 1.7 1.7 0.00 0.00 0.13 90 1011.4
20260502120308 44 179 2.6 2.6 0.00 0.00 0.13 89 1011.3
20260502115808 44 220 0.9 1.7 0.00 0.00 0.13 90 1011.3
20260502115308 44 189 1.7 1.7 0.00 0.00 0.13 90 1011.3
20260502114808 44 177 1.7 1.7 0.00 0.00 0.13 90 1011.3
20260502114308 44 195 1.7 1.7 0.00 0.00 0.13 90 1011.2
20260502113808 44 197 1.7 1.7 0.00 0.00 0.13 90 1011.2
20260502113308 44 182 0.9 1.7 0.00 0.00 0.13 91 1011.1
20260502112808 44 183 0.0 0.9 0.00 0.00 0.13 91 1011.1
20260502112309 44 179 0.0 0.0 0.00 0.00 0.13 91 1011.2
20260502111808 44 0 0.0 0.0 0.00 0.00 0.13 92 1011.0
20260502111309 44 0 0.0 0.0 0.00 0.00 0.13 92 1011.0
20260502110808 44 0 0.0 0.0 0.00 0.00 0.13 92 1010.9
20260502110309 44 234 0.0 0.9 0.00 0.00 0.13 92 1011.0
20260502105808 44 0 0.0 0.0 0.00 0.00 0.13 92 1010.9
20260502105308 44 0 0.0 0.0 0.00 0.00 0.13 92 1010.9
20260502104808 44 0 0.0 0.0 0.00 0.00 0.13 91 1010.9
20260502104308 44 22 0.0 0.9 0.00 0.00 0.13 91 1010.8
20260502103808 43 0 0.0 0.0 0.00 0.00 0.13 91 1010.8
20260502103309 43 350 0.0 0.9 0.00 0.00 0.13 91 1010.9
20260502102808 43 0 0.0 0.0 0.00 0.00 0.13 91 1010.9
20260502102308 43 272 0.0 0.0 0.00 0.00 0.12 91 1010.8
20260502101809 43 219 0.0 0.9 0.00 0.00 0.12 91 1010.9
20260502101308 43 0 0.0 0.0 0.00 0.00 0.12 91 1010.9
20260502100808 43 0 0.0 0.0 0.00 0.00 0.12 91 1010.8
20260502100308 43 0 0.0 0.0 0.00 0.00 0.12 91 1010.7
20260502091309 44 217 0.9 1.7 0.00 0.00 0.12 87 1010.6
20260502090808 44 0 0.0 0.0 0.00 0.00 0.12 87 1010.6
20260502090308 44 0 0.0 0.0 0.00 0.00 0.12 87 1010.6
20260502071308 43 293 0.0 0.9 0.01 0.00 0.12 86 1010.8
20260502070809 43 163 0.9 1.7 0.01 0.00 0.12 86 1010.9
20260502070308 43 212 1.7 2.6 0.02 0.00 0.12 86 1010.9
20260502065808 43 157 0.9 1.7 0.02 0.00 0.11 86 1010.9
20260502065308 43 214 1.7 2.6 0.02 0.00 0.11 86 1010.9
20260502064808 43 174 1.7 2.6 0.02 0.00 0.11 86 1010.8
20260502064308 43 229 1.7 2.6 0.02 0.00 0.11 86 1010.8
20260502063808 43 112 0.0 0.9 0.02 0.00 0.11 86 1011.0
20260502063308 43 200 0.9 1.7 0.02 0.00 0.11 86 1011.0
20260502062809 43 220 0.9 1.7 0.04 0.00 0.11 86 1010.9
20260502062308 43 209 1.7 2.6 0.03 0.00 0.11 86 1010.9
20260502061808 43 188 0.9 1.7 0.03 0.00 0.11 87 1011.1
20260502061308 43 131 0.0 1.7 0.03 0.00 0.11 87 1011.2
20260502060808 43 161 0.0 1.7 0.03 0.00 0.11 87 1011.2
20260502060309 43 201 1.7 2.6 0.02 0.00 0.10 87 1011.3
20260502055808 43 197 0.0 1.7 0.02 0.00 0.09 86 1011.4
20260502055308 43 182 0.9 1.7 0.02 0.00 0.08 86 1011.5
20260502054808 43 245 1.7 1.7 0.03 0.00 0.08 86 1011.4
20260502054308 43 285 0.0 0.9 0.05 0.00 0.08 87 1011.5
20260502053808 43 147 0.0 0.9 0.05 0.00 0.08 87 1011.5
20260502053309 43 213 0.9 1.7 0.06 0.00 0.08 86 1011.7
20260502052808 43 216 0.9 1.7 0.06 0.00 0.08 86 1011.7
20260502052308 43 214 0.0 0.9 0.06 0.00 0.07 86 1011.6
20260502051808 43 220 0.0 2.6 0.06 0.00 0.07 85 1011.6
20260502051308 44 277 0.9 1.7 0.07 0.00 0.07 85 1011.6
20260502050808 44 257 0.0 0.9 0.07 0.00 0.07 84 1011.6